When you browse on this site, cookies collect data to enhance your experience and personalize the content and advertising you see.
Visit our Privacy Policy to learn more. By continuing to use the site, you agree to this use of cookies and data.
  • In Latvia
  • List of Countries
  • For 7 days
  • Water Temperature
  • Satellite Maps
  • Weather Map
  • Weather Widgets
  • user-avatar
    Login

    Hourly Weather Baboshkin

    Today, 21 July, Sunday

    Time Temperature Precipitation Wind Pressure Humidity
    00:00 +24°C° 0 mm 2 mps 760 mmHg 55%
    01:00 +23°C° 0 mm 2 mps 760 mmHg 57%
    02:00 +22°C° 0 mm 1 mps 760 mmHg 59%
    03:00 +22°C° 0 mm 1 mps 760 mmHg 60%
    04:00 +23°C° 0 mm 2 mps 760 mmHg 58%
    05:00 +23°C° 0 mm 2 mps 760 mmHg 57%
    06:00 +24°C° 0 mm 2 mps 761 mmHg 56%
    07:00 +26°C° 0 mm 2 mps 760 mmHg 50%
    08:00 +27°C° 0 mm 3 mps 760 mmHg 45%
    09:00 +29°C° 0 mm 3 mps 761 mmHg 38%
    10:00 +30°C° 0 mm 3 mps 760 mmHg 35%
    11:00 +32°C° 0 mm 4 mps 760 mmHg 32%
    12:00 +33°C° 0 mm 5 mps 760 mmHg 29%
    13:00 +33°C° 0 mm 5 mps 760 mmHg 28%
    14:00 +33°C° 0 mm 5 mps 759 mmHg 27%
    15:00 +34°C° 0 mm 5 mps 759 mmHg 26%
    16:00 +33°C° 0 mm 5 mps 759 mmHg 27%
    17:00 +33°C° 0 mm 4 mps 759 mmHg 29%
    18:00 +32°C° 0 mm 4 mps 759 mmHg 31%
    19:00 +29°C° 0 mm 4 mps 759 mmHg 35%
    20:00 +28°C° 0 mm 3 mps 759 mmHg 40%
    21:00 +26°C° 0 mm 2 mps 759 mmHg 45%
    22:00 +26°C° 0 mm 2 mps 759 mmHg 48%
    23:00 +25°C° 0 mm 2 mps 759 mmHg 51%

    Tomorrow, 22 July, Monday

    Time Temperature Precipitation Wind Pressure Humidity
    00:00 +24°C° 0 mm 2 mps 759 mmHg 54%
    01:00 +24°C° 0 mm 1 mps 759 mmHg 57%
    02:00 +24°C° 0 mm 1 mps 759 mmHg 60%
    03:00 +21°C° 0 mm 0 mps 759 mmHg 63%
    04:00 +24°C° 0 mm 1 mps 759 mmHg 61%
    05:00 +25°C° 0 mm 1 mps 759 mmHg 59%
    06:00 +25°C° 0 mm 1 mps 759 mmHg 57%
    07:00 +26°C° 0.2 mm 1 mps 759 mmHg 54%
    08:00 +26°C° 0.2 mm 2 mps 759 mmHg 52%
    09:00 +27°C° 0.2 mm 2 mps 759 mmHg 49%
    10:00 +27°C° 0.3 mm 2 mps 758 mmHg 50%
    11:00 +27°C° 0.3 mm 2 mps 758 mmHg 50%
    12:00 +27°C° 0.3 mm 2 mps 758 mmHg 51%
    13:00 +28°C° 0.1 mm 3 mps 757 mmHg 47%
    14:00 +29°C° 0.1 mm 4 mps 757 mmHg 42%
    15:00 +30°C° 0.1 mm 5 mps 757 mmHg 38%
    16:00 +30°C° 0 mm 4 mps 757 mmHg 38%
    17:00 +29°C° 0 mm 4 mps 757 mmHg 39%
    18:00 +29°C° 0 mm 4 mps 757 mmHg 39%
    19:00 +28°C° 0 mm 3 mps 757 mmHg 45%
    20:00 +26°C° 0 mm 3 mps 757 mmHg 50%
    21:00 +25°C° 0 mm 3 mps 757 mmHg 56%
    22:00 +24°C° 0 mm 3 mps 757 mmHg 59%
    23:00 +22°C° 0 mm 3 mps 757 mmHg 62%

    Day after tomorrow, 23 July, Tuesday

    Time Temperature Precipitation Wind Pressure Humidity
    00:00 +21°C° 0 mm 3 mps 758 mmHg 64%
    01:00 +20°C° 0 mm 3 mps 758 mmHg 67%
    02:00 +20°C° 0 mm 3 mps 758 mmHg 70%
    03:00 +19°C° 0 mm 3 mps 757 mmHg 73%
    04:00 +19°C° 0 mm 2 mps 758 mmHg 71%
    05:00 +20°C° 0 mm 2 mps 758 mmHg 69%
    06:00 +21°C° 0 mm 2 mps 758 mmHg 67%
    07:00 +23°C° 0 mm 2 mps 758 mmHg 60%
    08:00 +24°C° 0 mm 2 mps 758 mmHg 52%
    09:00 +26°C° 0 mm 1 mps 758 mmHg 45%
    10:00 +27°C° 0 mm 2 mps 758 mmHg 41%
    11:00 +28°C° 0 mm 2 mps 758 mmHg 37%
    12:00 +29°C° 0 mm 2 mps 758 mmHg 33%
    13:00 +30°C° 0 mm 2 mps 757 mmHg 32%
    14:00 +30°C° 0 mm 2 mps 757 mmHg 30%
    15:00 +31°C° 0 mm 2 mps 757 mmHg 28%
    16:00 +31°C° 0 mm 2 mps 757 mmHg 29%
    17:00 +31°C° 0 mm 2 mps 757 mmHg 29%
    18:00 +30°C° 0 mm 2 mps 757 mmHg 30%
    19:00 +29°C° 0 mm 2 mps 757 mmHg 33%
    20:00 +27°C° 0 mm 2 mps 757 mmHg 37%
    21:00 +26°C° 0 mm 3 mps 757 mmHg 41%
    22:00 +25°C° 0 mm 3 mps 757 mmHg 45%
    23:00 +25°C° 0 mm 3 mps 757 mmHg 49%

    24 July, Wednesday

    Time Temperature Precipitation Wind Pressure Humidity
    00:00 +24°C° 0 mm 3 mps 757 mmHg 53%
    01:00 +22°C° 0 mm 3 mps 757 mmHg 55%
    02:00 +23°C° 0 mm 2 mps 757 mmHg 57%
    03:00 +21°C° 0 mm 2 mps 757 mmHg 60%
    04:00 +23°C° 0 mm 2 mps 757 mmHg 58%
    05:00 +23°C° 0 mm 2 mps 758 mmHg 57%
    06:00 +24°C° 0 mm 2 mps 758 mmHg 55%
    07:00 +26°C° 0 mm 1 mps 758 mmHg 50%
    08:00 +27°C° 0 mm 1 mps 758 mmHg 45%
    09:00 +28°C° 0 mm 1 mps 758 mmHg 40%
    10:00 +29°C° 0 mm 2 mps 758 mmHg 37%
    11:00 +30°C° 0 mm 2 mps 757 mmHg 34%
    12:00 +31°C° 0 mm 2 mps 757 mmHg 31%
    13:00 +32°C° 0 mm 2 mps 757 mmHg 30%
    14:00 +33°C° 0 mm 3 mps 757 mmHg 29%
    15:00 +34°C° 0 mm 3 mps 757 mmHg 27%
    16:00 +33°C° 0 mm 3 mps 757 mmHg 28%
    17:00 +33°C° 0 mm 3 mps 757 mmHg 29%
    18:00 +33°C° 0 mm 4 mps 757 mmHg 29%
    19:00 +30°C° 0 mm 4 mps 757 mmHg 33%
    20:00 +29°C° 0 mm 4 mps 757 mmHg 37%
    21:00 +27°C° 0 mm 3 mps 757 mmHg 41%
    22:00 +26°C° 0 mm 4 mps 757 mmHg 44%
    23:00 +26°C° 0 mm 4 mps 757 mmHg 48%

    25 July, Thursday

    Time Temperature Precipitation Wind Pressure Humidity
    00:00 +25°C° 0 mm 4 mps 758 mmHg 52%
    01:00 +23°C° 0 mm 4 mps 757 mmHg 55%
    02:00 +24°C° 0 mm 3 mps 757 mmHg 58%
    03:00 +22°C° 0 mm 3 mps 757 mmHg 61%
    04:00 +24°C° 0 mm 3 mps 757 mmHg 60%
    05:00 +23°C° 0 mm 4 mps 757 mmHg 59%
    06:00 +25°C° 0 mm 4 mps 758 mmHg 59%
    07:00 +26°C° 0 mm 4 mps 758 mmHg 54%
    08:00 +28°C° 0 mm 4 mps 758 mmHg 48%
    09:00 +29°C° 0 mm 4 mps 758 mmHg 43%
    10:00 +30°C° 0 mm 4 mps 757 mmHg 40%
    11:00 +32°C° 0 mm 5 mps 757 mmHg 36%
    12:00 +33°C° 0 mm 5 mps 757 mmHg 33%
    13:00 +34°C° 0 mm 5 mps 757 mmHg 32%
    14:00 +34°C° 0 mm 4 mps 756 mmHg 31%
    15:00 +34°C° 0 mm 4 mps 756 mmHg 30%
    16:00 +34°C° 0 mm 4 mps 756 mmHg 31%
    17:00 +33°C° 0 mm 5 mps 755 mmHg 32%
    18:00 +33°C° 0 mm 5 mps 755 mmHg 33%
    19:00 +32°C° 0 mm 4 mps 755 mmHg 36%
    20:00 +29°C° 0 mm 4 mps 755 mmHg 39%
    21:00 +28°C° 0 mm 3 mps 756 mmHg 42%
    22:00 +27°C° 0 mm 3 mps 756 mmHg 44%
    23:00 +27°C° 0 mm 3 mps 755 mmHg 46%

    26 July, Friday

    Time Temperature Precipitation Wind Pressure Humidity
    00:00 +26°C° 0 mm 3 mps 755 mmHg 48%
    01:00 +25°C° 0 mm 3 mps 755 mmHg 50%
    02:00 +25°C° 0 mm 3 mps 755 mmHg 53%
    03:00 +24°C° 0 mm 3 mps 755 mmHg 55%
    04:00 +25°C° 0 mm 4 mps 755 mmHg 56%
    05:00 +25°C° 0 mm 4 mps 755 mmHg 56%
    06:00 +25°C° 0 mm 4 mps 755 mmHg 57%
    07:00 +27°C° 0 mm 4 mps 754 mmHg 52%
    08:00 +29°C° 0 mm 4 mps 754 mmHg 46%
    09:00 +32°C° 0 mm 4 mps 754 mmHg 41%
    10:00 +33°C° 0 mm 4 mps 754 mmHg 37%
    11:00 +34°C° 0 mm 4 mps 753 mmHg 34%
    12:00 +35°C° 0 mm 4 mps 753 mmHg 30%
    13:00 +35°C° 0 mm 4 mps 753 mmHg 30%
    14:00 +35°C° 0 mm 4 mps 752 mmHg 29%
    15:00 +35°C° 0 mm 4 mps 752 mmHg 29%
    16:00 +34°C° 0 mm 4 mps 752 mmHg 32%
    17:00 +33°C° 0 mm 5 mps 751 mmHg 35%
    18:00 +32°C° 0 mm 6 mps 751 mmHg 38%
    19:00 +30°C° 0.1 mm 6 mps 751 mmHg 41%
    20:00 +29°C° 0.1 mm 5 mps 751 mmHg 45%
    21:00 +28°C° 0.1 mm 5 mps 751 mmHg 48%
    22:00 +27°C° 0.8 mm 4 mps 751 mmHg 55%
    23:00 +26°C° 0.8 mm 4 mps 751 mmHg 63%
    Show more